Weather History for KPIB - February, 2014

Change the Weather History Date:

Thursday, February 20, 2014

  Actual Average Record
Temperature  
Mean Temperature 72 °F -  
Max Temperature 82 °F 62 °F 82 °F (2014)
Min Temperature 62 °F 41 °F 24 °F (2009)
Cooling Degree Days 7    
Growing Degree Days 22 (Base 50)    
Moisture  
Dew Point 62 °F    
Average Humidity 77    
Maximum Humidity 94    
Minimum Humidity 42    
Precipitation  
Precipitation 3.06 in - - ()
Sea Level Pressure  
Sea Level Pressure 29.92 in    
Wind  
Wind Speed 11 mph (South)    
Max Wind Speed 22 mph    
Max Gust Speed 40 mph    
Visibility 9 miles    
Events Thunderstorm    
Averages and records for this station are not official NWS values.
T = Trace of Precipitation, MM = Missing Value Source: NWS Daily Summary

Daily Weather History Graph

Daily Weather History Graph

Search for Another Location

Airport or City:

Trip Planner

Search our weather history database for the weather conditions in past years. The results will help you decide how hot, cold, wet, or windy it might be!

Date:

Astronomy

Feb. 20, 2014 Rise Set
Actual Time 6:33 AM CST 5:48 PM CST
Civil Twilight 6:09 AM CST 6:13 PM CST
Nautical Twilight 5:40 AM CST 6:41 PM CST
Astronomical Twilight 5:12 AM CST 7:09 PM CST
Moon 11:18 PM CST (2/20) 9:39 AM CST (2/20)
Length of Visible Light 12h 03m
Length of Day
11h 14m
Waning Gibbous, 70% of the Moon is Illuminated
Feb 20
Waning Gibbous
Feb 22
Last Quarter
Mar 1
New
Mar 8
First Quarter
Mar 16
Full

Hourly Weather History & Observations

Time (CST) Temp. Heat Index Dew Point Humidity Pressure Visibility Wind Dir Wind Speed Gust Speed Precip Events Conditions
12:15 AM 66.2 °F - 62.6 °F 88% 29.97 in 10.0 mi South 11.5 mph - N/A   Overcast
12:35 AM 66.2 °F - 62.6 °F 88% 29.98 in 10.0 mi South 9.2 mph - N/A   Overcast
12:55 AM 66.2 °F - 62.6 °F 88% 29.98 in 10.0 mi SSE 9.2 mph - N/A   Overcast
1:15 AM 66.2 °F - 62.6 °F 88% 29.98 in 10.0 mi SSE 9.2 mph - N/A   Overcast
1:35 AM 66.2 °F - 60.8 °F 83% 29.97 in 10.0 mi SSE 9.2 mph - N/A   Overcast
1:55 AM 64.4 °F - 60.8 °F 88% 29.97 in 10.0 mi SSE 9.2 mph - N/A   Overcast
2:15 AM 64.4 °F - 60.8 °F 88% 29.96 in 10.0 mi SSE 9.2 mph - N/A   Mostly Cloudy
2:35 AM 64.4 °F - 60.8 °F 88% 29.96 in 10.0 mi South 6.9 mph - N/A   Overcast
2:55 AM 64.4 °F - 60.8 °F 88% 29.95 in 10.0 mi SSE 8.1 mph - N/A   Overcast
3:15 AM 64.4 °F - 60.8 °F 88% 29.95 in 10.0 mi SSE 8.1 mph - N/A   Overcast
3:35 AM 64.4 °F - 60.8 °F 88% 29.95 in 10.0 mi SSE 5.8 mph - N/A   Mostly Cloudy
3:55 AM 64.4 °F - 60.8 °F 88% 29.95 in 10.0 mi South 4.6 mph - N/A   Overcast
4:15 AM 62.6 °F - 60.8 °F 94% 29.94 in 10.0 mi South 5.8 mph - N/A   Mostly Cloudy
4:35 AM 62.6 °F - 60.8 °F 94% 29.94 in 10.0 mi South 6.9 mph - N/A   Mostly Cloudy
4:55 AM 62.6 °F - 60.8 °F 94% 29.94 in 10.0 mi South 6.9 mph - N/A   Overcast
5:15 AM 64.4 °F - 60.8 °F 88% 29.94 in 10.0 mi South 8.1 mph - N/A   Overcast
5:35 AM 64.4 °F - 62.6 °F 94% 29.95 in 10.0 mi South 9.2 mph - N/A   Overcast
5:55 AM 66.2 °F - 62.6 °F 88% 29.95 in 10.0 mi South 10.4 mph - N/A   Overcast
6:15 AM 66.2 °F - 62.6 °F 88% 29.95 in 10.0 mi South 10.4 mph - N/A   Overcast
6:35 AM 66.2 °F - 62.6 °F 88% 29.95 in 10.0 mi South 8.1 mph - N/A   Overcast
6:55 AM 66.2 °F - 62.6 °F 88% 29.96 in 10.0 mi South 10.4 mph - N/A   Overcast
7:15 AM 66.2 °F - 60.8 °F 83% 29.96 in 10.0 mi South 10.4 mph - N/A   Overcast
7:35 AM 66.2 °F - 60.8 °F 83% 29.96 in 10.0 mi South 11.5 mph 17.3 mph N/A   Overcast
7:55 AM 66.2 °F - 62.6 °F 88% 29.96 in 10.0 mi South 9.2 mph - N/A   Overcast
8:15 AM 66.2 °F - 62.6 °F 88% 29.97 in 10.0 mi SSW 9.2 mph - N/A   Overcast
8:35 AM 66.2 °F - 62.6 °F 88% 29.98 in 10.0 mi SW 5.8 mph - N/A   Overcast
8:55 AM 69.8 °F - 62.6 °F 78% 29.97 in 10.0 mi SW 6.9 mph - N/A   Overcast
9:15 AM 71.6 °F - 62.6 °F 73% 29.97 in 10.0 mi South 13.8 mph 19.6 mph N/A   Overcast
9:35 AM 71.6 °F - 60.8 °F 69% 29.97 in 10.0 mi South 15.0 mph 18.4 mph N/A   Mostly Cloudy
9:55 AM 75.2 °F - 60.8 °F 61% 29.97 in 10.0 mi SSW 11.5 mph 21.9 mph N/A   Mostly Cloudy
10:15 AM 75.2 °F - 60.8 °F 61% 29.97 in 10.0 mi South 16.1 mph 28.8 mph N/A   Overcast
10:35 AM 75.2 °F - 59.0 °F 57% 29.97 in 10.0 mi South 20.7 mph 28.8 mph N/A   Mostly Cloudy
10:55 AM 75.2 °F - 59.0 °F 57% 29.98 in 10.0 mi South 16.1 mph 26.5 mph N/A   Mostly Cloudy
11:15 AM 75.2 °F - 60.8 °F 61% 29.97 in 10.0 mi SSW 12.7 mph 27.6 mph N/A   Overcast
11:35 AM 75.2 °F - 60.8 °F 61% 29.97 in 10.0 mi South 13.8 mph 23.0 mph N/A   Overcast
11:55 AM 77.0 °F - 60.8 °F 57% 29.95 in 10.0 mi South 20.7 mph 32.2 mph N/A   Mostly Cloudy
12:15 PM 77.0 °F - 60.8 °F 57% 29.94 in 10.0 mi South 16.1 mph 24.2 mph N/A   Mostly Cloudy
12:35 PM 78.8 °F - 60.8 °F 54% 29.93 in 10.0 mi South 21.9 mph 26.5 mph N/A   Mostly Cloudy
12:55 PM 78.8 °F - 60.8 °F 54% 29.92 in 10.0 mi SSW 15.0 mph 25.3 mph N/A   Overcast
1:15 PM 80.6 °F 81.1 °F 59.0 °F 48% 29.91 in 10.0 mi SSW 17.3 mph 33.4 mph N/A   Mostly Cloudy
1:35 PM 80.6 °F 80.8 °F 57.2 °F 45% 29.91 in 10.0 mi South 15.0 mph 20.7 mph N/A   Mostly Cloudy
1:55 PM 80.6 °F 81.1 °F 59.0 °F 48% 29.91 in 10.0 mi South 17.3 mph 24.2 mph N/A   Mostly Cloudy
2:15 PM 80.6 °F 81.1 °F 59.0 °F 48% 29.89 in 10.0 mi SSW 15.0 mph 24.2 mph N/A   Partly Cloudy
2:35 PM 82.4 °F 82.0 °F 57.2 °F 42% 29.88 in 10.0 mi South 18.4 mph 25.3 mph N/A   Clear
2:55 PM 80.6 °F 80.8 °F 57.2 °F 45% 29.89 in 10.0 mi SSW 16.1 mph 24.2 mph N/A   Mostly Cloudy
3:15 PM 82.4 °F 82.0 °F 57.2 °F 42% 29.88 in 10.0 mi SSW 13.8 mph 24.2 mph N/A   Scattered Clouds
3:35 PM 80.6 °F 80.8 °F 57.2 °F 45% 29.87 in 10.0 mi South 19.6 mph 24.2 mph N/A   Scattered Clouds
3:55 PM 78.8 °F - 59.0 °F 51% 29.88 in 10.0 mi South 13.8 mph 19.6 mph N/A   Mostly Cloudy
4:15 PM 78.8 °F - 59.0 °F 51% 29.88 in 10.0 mi South 12.7 mph 19.6 mph N/A   Mostly Cloudy
4:35 PM 77.0 °F - 60.8 °F 57% 29.88 in 10.0 mi South 10.4 mph 19.6 mph N/A   Mostly Cloudy
4:55 PM 73.4 °F - 64.4 °F 73% 29.88 in 10.0 mi SW 6.9 mph - 0.04 in   Overcast
5:15 PM 68.0 °F - 64.4 °F 88% 29.88 in 3.0 mi South 8.1 mph - 0.52 in Thunderstorm Thunderstorm
5:35 PM 68.0 °F - 62.6 °F 83% 29.87 in 5.0 mi SSW 8.1 mph - 0.98 in Thunderstorm Thunderstorm
5:55 PM 66.2 °F - 62.6 °F 88% 29.88 in 10.0 mi SSE 8.1 mph - 0.98 in Thunderstorm Mostly Cloudy
6:15 PM 66.2 °F - 64.4 °F 94% 29.87 in 10.0 mi SSE 10.4 mph - N/A   Mostly Cloudy
6:35 PM 69.8 °F - 66.2 °F 88% 29.88 in 10.0 mi South 10.4 mph - N/A   Scattered Clouds
6:55 PM 69.8 °F - 66.2 °F 88% 29.89 in 10.0 mi South 10.4 mph - N/A   Mostly Cloudy
7:15 PM 69.8 °F - 66.2 °F 88% 29.89 in 10.0 mi South 9.2 mph - N/A Thunderstorm Thunderstorm
7:35 PM 69.8 °F - 66.2 °F 88% 29.88 in 10.0 mi South 6.9 mph - N/A   Mostly Cloudy
7:55 PM 69.8 °F - 66.2 °F 88% 29.86 in 10.0 mi SSE 9.2 mph - N/A Thunderstorm Thunderstorm
8:15 PM 69.8 °F - 66.2 °F 88% 29.86 in 10.0 mi South 12.7 mph 18.4 mph 0.01 in Thunderstorm Overcast
8:35 PM 69.8 °F - 66.2 °F 88% 29.85 in 10.0 mi SSE 17.3 mph 23.0 mph 0.02 in Thunderstorm Thunderstorm
8:55 PM 69.8 °F - 66.2 °F 88% 29.86 in 9.0 mi South 15.0 mph 20.7 mph 0.03 in Thunderstorm Thunderstorm
9:15 PM 69.8 °F - 66.2 °F 88% 29.86 in 10.0 mi SSW 6.9 mph 25.3 mph N/A Thunderstorm Thunderstorm
9:35 PM - - - N/A% 29.84 in 4.0 mi WSW 20.7 mph 40.3 mph 0.14 in Thunderstorm Thunderstorm
9:55 PM 64.4 °F - 62.6 °F 94% 29.88 in 9.0 mi SSW 11.5 mph 20.7 mph 0.33 in Thunderstorm Thunderstorm
10:15 PM 66.2 °F - 62.6 °F 88% 29.86 in 8.0 mi WSW 5.8 mph - 0.31 in Thunderstorm Thunderstorm
10:35 PM 64.4 °F - 62.6 °F 94% 29.87 in 8.0 mi SSW 6.9 mph - 0.61 in Thunderstorm Thunderstorm
10:55 PM 64.4 °F - 62.6 °F 94% 29.89 in 6.0 mi SSW 6.9 mph - 0.78 in Thunderstorm Mostly Cloudy
11:15 PM 64.4 °F - 62.6 °F 94% 29.91 in 3.0 mi West 11.5 mph 17.3 mph 0.49 in Thunderstorm Overcast
11:35 PM 64.4 °F - 62.6 °F 94% 29.90 in 5.0 mi West 4.6 mph 23.0 mph 0.87 in Thunderstorm Overcast
11:55 PM 64.4 °F - 62.6 °F 94% 29.89 in 10.0 mi SW 4.6 mph - 0.90 in Thunderstorm Overcast